Wind_Speed
7 6 5 5 3 3 3 3 3 3 2 1 0 0 1 1 1 1 1 2 2 4 3 3 3 3 4 5 5 5 6 7 8
7 7 7 6 5 4 3 3 3 3 2 1 1 1 1 2 1 1 2 2 4 4 4 4 3 4 5 6 6 6 7 9 10
9 8 8 7 6 6 4 3 3 4 2 1 1 2 2 2 3 3 4 5 6 5 5 5 5 5 6 6 6 7 8 9 10
9 8 8 8 7 6 5 4 4 4 4 4 2 1 0 1 3 5 6 7 6 6 7 6 6 6 6 5 5 6 8 9 9
9 9 9 8 8 8 6 5 5 6 7 7 6 3 3 3 5 6 6 6 6 6 6 6 5 5 5 5 7 8 9 9 8
10 9 10 10 10 9 8 7 7 8 8 8 9 6 4 5 6 6 6 6 7 7 7 7 7 7 8 9 10 10 11 11 11
12 10 10 11 12 11 10 9 8 8 8 9 9 9 7 6 7 8 9 9 8 8 9 9 10 11 12 13 12 12 14 14 15
13 12 11 12 12 12 11 10 9 8 9 9 9 9 8 8 9 10 11 12 12 13 14 14 15 16 17 16 15 16 17 18 19
15 14 13 13 12 12 11 11 10 10 8 9 10 9 9 9 11 12 14 14 15 16 18 18 19 20 21 20 22 21 21 23 23
17 15 14 12 12 11 11 12 11 9 9 8 8 8 9 10 12 13 15 16 17 18 19 19 21 23 24 26 27 27 27 27 27
20 19 17 16 15 13 12 11 11 12 11 9 9 9 10 10 12 14 15 17 19 20 21 23 24 25 26 28 29 30 31 32 32
24 21 20 19 18 18 17 16 15 14 12 11 10 9 10 11 12 14 15 16 17 19 21 23 26 27 29 30 31 32 31 32 34
28 25 23 23 22 22 20 19 18 18 16 15 14 14 15 15 16 17 20 21 23 24 26 28 30 33 32 32 33 34 36 37 37
31 29 26 25 25 24 24 23 22 22 21 20 19 19 20 21 21 22 24 25 29 30 30 31 33 32 31 33 33 36 38 40 42
35 32 30 28 27 27 27 27 26 26 24 24 24 25 24 25 27 27 27 29 30 35 38 38 38 35 33 36 38 40 43 43 44
39 36 34 32 31 32 31 29 29 28 29 31 31 30 29 29 32 33 34 35 38 40 43 42 40 42 41 44 49 50 49 48 50
42 41 40 39 37 35 34 34 34 35 36 36 37 35 35 35 38 39 40 42 43 43 44 47 49 47 46 46 48 53 57 55 56
48 46 45 44 42 41 40 41 40 41 41 40 41 40 40 42 42 42 45 47 47 48 50 50 51 53 51 49 52 55 57 59 60
50 50 49 48 48 47 47 47 46 47 46 47 47 48 47 47 48 50 50 52 52 52 52 53 54 54 55 56 59 61 63 61 65
53 52 52 52 52 53 53 52 53 54 53 53 54 53 53 53 53 54 55 56 56 57 56 57 57 58 57 59 61 64 65 68 68
Wind_Direction
209 218 236 253 260 295 336 341 333 315 324 352 358 271 285 337 349 305 319 307 341 10 6 359 354 332 351 347 339 341 344 344 347
225 237 249 262 278 290 307 309 299 291 337 32 52 63 73 72 79 36 356 347 5 356 350 341 330 339 330 317 319 327 332 342 347
230 236 244 256 271 286 295 288 284 289 319 309 91 81 61 43 32 16 2 4 353 340 330 326 331 331 319 321 328 333 341 346 345
225 231 239 249 261 275 287 293 278 282 289 273 248 215 115 357 346 355 351 348 345 342 339 334 330 325 319 324 332 343 343 345 350
215 227 234 242 248 261 271 275 266 271 279 278 267 271 294 318 327 335 336 329 331 334 331 326 324 319 313 317 327 332 329 331 331
217 225 234 241 245 251 262 271 277 279 286 289 274 267 279 292 297 307 305 313 319 318 316 316 311 307 304 309 314 317 316 313 316
219 228 231 236 246 248 250 261 270 276 279 282 274 264 267 277 283 292 300 309 312 310 307 305 305 302 301 301 300 301 309 309 308
223 228 233 235 241 246 243 249 257 265 270 270 265 263 264 272 279 287 300 306 306 307 309 309 308 304 301 298 291 298 304 301 301
226 227 226 234 232 234 237 240 246 258 260 258 258 262 268 273 280 291 296 301 306 307 304 302 301 301 297 292 292 297 299 301 299
227 218 220 224 230 229 230 235 237 241 243 249 260 266 272 278 285 291 296 299 299 298 300 301 300 299 297 295 295 298 298 300 300
226 227 228 228 229 230 229 230 232 240 248 255 264 272 277 282 287 289 290 294 296 297 298 299 299 300 301 300 299 299 299 299 298
225 229 231 232 230 229 226 226 235 238 244 252 256 267 276 285 291 296 298 301 302 302 300 299 301 303 303 303 301 300 300 301 300
227 227 228 233 234 234 230 231 229 230 237 243 256 266 273 280 285 287 291 297 300 302 304 306 307 304 303 300 297 297 299 301 304
230 230 227 229 236 239 238 238 233 233 236 245 254 260 264 268 272 276 283 292 299 302 302 302 307 299 300 301 302 299 300 300 300
233 232 231 229 233 235 240 240 239 236 241 247 249 255 258 265 272 275 280 291 294 299 301 300 307 299 301 306 304 305 304 303 303
235 236 236 236 235 235 236 237 238 241 246 252 254 257 265 271 276 278 281 286 291 296 298 299 301 309 301 303 309 307 303 304 303
238 238 238 238 238 238 238 238 239 242 246 250 256 259 263 270 273 277 280 284 289 293 293 297 303 303 305 301 303 306 304 302 302
238 239 241 242 243 244 244 246 247 249 252 257 261 265 268 269 274 278 282 286 290 291 294 297 297 298 297 297 298 301 303 302 300
239 241 243 246 247 248 249 251 253 256 259 262 266 267 269 273 277 281 281 284 286 287 290 290 291 292 292 293 293 295 301 302 300
241 243 245 246 248 249 252 253 255 257 259 261 264 267 271 273 275 277 280 283 285 287 287 289 289 290 289 290 291 295 295 298 301
Height
5880 5881 5881 5882 5882 5883 5884 5884 5884 5885 5886 5886 5886 5886 5886 5887 5887 5887 5888 5888 5888 5887 5887 5888 5887 5888 5887 5887 5887 5886 5885 5884 5883
5878 5879 5879 5880 5881 5881 5882 5882 5882 5883 5884 5884 5885 5885 5886 5887 5887 5888 5888 5888 5887 5887 5887 5887 5887 5886 5886 5886 5886 5885 5884 5883 5882
5876 5877 5877 5878 5879 5880 5881 5881 5882 5882 5883 5884 5885 5885 5886 5887 5887 5887 5886 5886 5886 5887 5887 5886 5885 5885 5885 5885 5884 5884 5883 5882 5881
5874 5875 5876 5876 5877 5878 5880 5880 5881 5881 5882 5883 5884 5884 5884 5884 5884 5884 5884 5885 5885 5885 5884 5884 5884 5884 5884 5883 5883 5882 5881 5880 5879
5871 5873 5874 5875 5875 5876 5878 5879 5879 5880 5881 5881 5882 5882 5883 5883 5883 5883 5884 5884 5883 5883 5883 5883 5882 5882 5882 5881 5880 5880 5879 5878 5877
5869 5870 5871 5872 5873 5874 5875 5877 5877 5877 5878 5878 5879 5880 5880 5882 5882 5882 5883 5883 5882 5882 5881 5881 5881 5881 5880 5879 5878 5878 5877 5876 5875
5866 5868 5868 5869 5870 5871 5872 5874 5875 5875 5876 5877 5878 5878 5879 5880 5880 5880 5880 5880 5880 5880 5880 5880 5879 5879 5878 5877 5876 5875 5874 5873 5872
5863 5865 5865 5865 5866 5868 5870 5871 5873 5873 5874 5874 5875 5876 5876 5877 5878 5879 5879 5879 5879 5878 5878 5877 5877 5876 5876 5875 5873 5872 5871 5870 5869
5860 5861 5862 5862 5864 5865 5867 5869 5870 5871 5871 5872 5872 5873 5874 5875 5876 5876 5876 5876 5876 5875 5875 5875 5874 5873 5872 5871 5870 5868 5867 5866 5864
5856 5858 5859 5859 5861 5862 5864 5866 5867 5868 5869 5869 5870 5871 5872 5872 5873 5873 5873 5873 5873 5872 5872 5871 5870 5870 5868 5867 5866 5864 5862 5860 5858
5852 5854 5856 5857 5857 5859 5861 5863 5864 5865 5866 5867 5867 5868 5869 5869 5869 5870 5869 5869 5869 5869 5868 5867 5866 5865 5863 5862 5860 5858 5856 5854 5852
5847 5849 5851 5853 5854 5855 5856 5858 5859 5860 5861 5863 5864 5864 5865 5865 5865 5865 5865 5865 5865 5864 5863 5862 5861 5859 5858 5856 5854 5851 5849 5847 5845
5841 5844 5846 5848 5850 5851 5852 5854 5854 5856 5857 5858 5859 5860 5861 5861 5861 5861 5861 5861 5860 5859 5859 5857 5856 5854 5851 5849 5847 5845 5843 5841 5838
5835 5838 5841 5843 5845 5847 5848 5850 5850 5851 5852 5853 5854 5855 5855 5855 5855 5855 5855 5855 5854 5853 5852 5851 5849 5847 5845 5843 5840 5838 5835 5833 5830
5828 5831 5835 5837 5839 5841 5842 5844 5845 5846 5847 5847 5847 5848 5848 5849 5848 5848 5847 5847 5846 5845 5844 5843 5841 5839 5837 5835 5833 5830 5827 5824 5820
5821 5825 5828 5830 5832 5833 5835 5837 5838 5840 5840 5841 5840 5841 5841 5842 5841 5839 5839 5838 5838 5837 5835 5834 5833 5832 5830 5827 5824 5821 5818 5815 5811
5814 5816 5819 5821 5823 5826 5828 5829 5830 5832 5832 5832 5832 5833 5834 5833 5832 5832 5831 5830 5829 5827 5826 5824 5823 5821 5819 5816 5814 5811 5807 5804 5800
5804 5806 5810 5812 5815 5818 5819 5821 5822 5823 5823 5825 5825 5825 5825 5823 5823 5822 5821 5819 5818 5817 5816 5814 5812 5810 5807 5805 5801 5798 5794 5791 5788
5794 5797 5801 5804 5806 5808 5809 5810 5812 5813 5814 5814 5815 5814 5815 5814 5814 5812 5810 5809 5808 5807 5805 5803 5800 5798 5796 5793 5789 5785 5782 5777 5774
5784 5787 5790 5793 5795 5797 5799 5800 5801 5801 5802 5802 5802 5803 5803 5803 5802 5801 5799 5797 5797 5796 5793 5791 5788 5786 5782 5779 5776 5773 5767 5763 5759